Change the Weather History Date:

Sunday, March 9, 2014

  Actual Average Record
Temperature  
Mean Temperature 34 °F -  
Max Temperature 39 °F 42 °F 69 °F (1987)
Min Temperature 30 °F 19 °F 3 °F (1978)
Degree Days  
Heating Degree Days 30    
Moisture  
Dew Point 14 °F    
Average Humidity 45    
Maximum Humidity 72    
Minimum Humidity 28    
Precipitation  
Precipitation 0.00 in - - ()
Sea Level Pressure  
Sea Level Pressure 29.93 in    
Wind  
Wind Speed 8 mph (NW)    
Max Wind Speed 20 mph    
Max Gust Speed 23 mph    
Visibility 10 miles    
Events      
Averages and records for this station are not official NWS values.
T = Trace of Precipitation, MM = Missing Value Source: NWS Daily Summary

Daily Weather History Graph

Daily Weather History Graph

Search for Another Location

Airport or City:

Trip Planner

Search our weather history database for the weather conditions in past years. The results will help you decide how hot, cold, wet, or windy it might be!

Date:

Astronomy

Mar. 09, 2014 Rise Set
Actual Time 7:10 AM EDT 6:48 PM EDT
Civil Twilight 6:42 AM EDT 7:16 PM EDT
Nautical Twilight 6:10 AM EDT 7:48 PM EDT
Astronomical Twilight 5:38 AM EDT 8:20 PM EDT
Moon 12:35 PM EDT (3/9) 3:37 AM EDT (3/9)
Length of Visible Light 12h 33m
Length of Day
11h 37m
First Quarter, 61% of the Moon is Illuminated
Mar 9
First Quarter
Mar 16
Full
Mar 23
Last Quarter
Mar 30
New
Apr 7
First Quarter

Hourly Weather History & Observations

Time (EDT) Temp. Windchill Dew Point Humidity Pressure Visibility Wind Dir Wind Speed Gust Speed Precip Events Conditions
12:52 AM 37.9 °F 33.5 °F 27.0 °F 65% 29.87 in 10.0 mi NW 5.8 mph - N/A   Overcast
1:52 AM 37.0 °F 33.3 °F 25.0 °F 62% 29.87 in 10.0 mi NNE 4.6 mph - N/A   Overcast
3:52 AM 35.1 °F 31.0 °F 25.0 °F 67% 29.87 in 10.0 mi North 4.6 mph - N/A   Overcast
4:52 AM 35.1 °F 31.0 °F 24.1 °F 64% 29.88 in 10.0 mi NW 4.6 mph - N/A   Overcast
5:52 AM 34.0 °F 28.8 °F 25.0 °F 70% 29.90 in 10.0 mi NNW 5.8 mph - N/A   Overcast
6:52 AM 33.1 °F 26.9 °F 25.0 °F 72% 29.93 in 10.0 mi NNW 6.9 mph - N/A   Overcast
7:52 AM 30.9 °F 25.2 °F 19.9 °F 64% 29.95 in 10.0 mi NNW 5.8 mph - N/A   Clear
8:52 AM 33.1 °F 25.5 °F 14.0 °F 46% 29.96 in 10.0 mi NW 9.2 mph - N/A   Clear
9:52 AM 34.0 °F 24.6 °F 12.0 °F 40% 29.97 in 10.0 mi NNW 13.8 mph - N/A   Clear
10:52 AM 35.1 °F 27.9 °F 14.0 °F 42% 29.96 in 10.0 mi NW 9.2 mph 19.6 mph N/A   Clear
11:14 AM 35.1 °F 25.2 °F 12.9 °F 40% 29.96 in 10.0 mi NW 16.1 mph 23.0 mph N/A   Clear
11:52 AM 36.0 °F 26.7 °F 14.0 °F 41% 29.96 in 10.0 mi NW 15.0 mph 20.7 mph N/A   Clear
12:52 PM 37.0 °F 26.7 °F 14.0 °F 39% 29.95 in 10.0 mi WNW 19.6 mph - N/A   Clear
1:52 PM 37.9 °F 30.5 °F 12.9 °F 36% 29.93 in 10.0 mi WNW 11.5 mph - N/A   Clear
2:52 PM 39.0 °F 32.8 °F 15.1 °F 38% 29.92 in 10.0 mi NW 9.2 mph 23.0 mph N/A   Clear
3:52 PM 37.9 °F 29.6 °F 12.0 °F 35% 29.92 in 10.0 mi NNW 13.8 mph 23.0 mph N/A   Clear
4:52 PM 37.9 °F 28.9 °F 10.0 °F 32% 29.92 in 10.0 mi NW 16.1 mph 23.0 mph N/A   Clear
5:52 PM 37.0 °F 28.5 °F 7.0 °F 29% 29.92 in 10.0 mi NW 13.8 mph 21.9 mph N/A   Clear
6:52 PM 35.1 °F 28.6 °F 5.0 °F 28% 29.94 in 10.0 mi NW 8.1 mph 23.0 mph N/A   Clear
7:52 PM 33.1 °F 28.7 °F 3.9 °F 29% 29.96 in 10.0 mi NNW 4.6 mph - N/A   Unknown
8:52 PM 33.1 °F 26.1 °F 3.9 °F 29% 29.96 in 10.0 mi NW 8.1 mph - N/A   Clear
9:52 PM 32.0 °F 28.7 °F 5.0 °F 32% 29.96 in 10.0 mi WNW 3.5 mph - N/A   Clear
10:52 PM 30.9 °F 27.5 °F 8.1 °F 38% 29.96 in 10.0 mi WNW 3.5 mph - N/A   Mostly Cloudy
11:52 PM 30.9 °F - 7.0 °F 37% 29.94 in 10.0 mi Calm Calm - N/A   Overcast
12:52 AM 30.9 °F - 9.0 °F 40% 29.91 in 10.0 mi Calm Calm - N/A   Mostly Cloudy